Time,TemperatureF,DewpointF,PressureIn,WindDirection,WindDirectionDegrees,WindSpeedMPH,WindSpeedGustMPH,Humidity,HourlyPrecipIn,Conditions,Clouds,dailyrainin,SoftwareType,DateUTC
2013-06-16 00:02:00,83.0,-99.9,30.04,SE,124,9.0,10.0,-999,-99.99,,,-99.99,,2013-06-16 05:02:00,
2013-06-16 00:12:00,83.0,-99.9,30.04,ESE,114,8.0,9.0,-999,-99.99,,,-99.99,,2013-06-16 05:12:00,
2013-06-16 00:22:00,83.0,-99.9,30.04,ESE,117,8.0,10.0,-999,-99.99,,,-99.99,,2013-06-16 05:22:00,
2013-06-16 00:34:00,83.0,-99.9,30.04,ESE,120,8.0,9.0,-999,-99.99,,,-99.99,,2013-06-16 05:34:00,
2013-06-16 00:43:00,83.0,-99.9,30.04,SE,134,8.0,11.0,-999,-99.99,,,-99.99,,2013-06-16 05:43:00,
2013-06-16 00:52:00,83.0,-99.9,30.04,SE,128,8.0,9.0,-999,-99.99,,,-99.99,,2013-06-16 05:52:00,
2013-06-16 01:02:00,83.0,-99.9,30.04,ESE,123,9.0,11.0,-999,-99.99,,,-99.99,,2013-06-16 06:02:00,
2013-06-16 01:12:00,83.0,-99.9,30.04,SE,145,9.0,11.0,-999,-99.99,,,-99.99,,2013-06-16 06:12:00,
2013-06-16 01:23:00,83.0,-99.9,30.04,SE,143,8.0,9.0,-999,-99.99,,,-99.99,,2013-06-16 06:23:00,
2013-06-16 01:33:00,83.0,-99.9,30.04,SE,139,7.0,9.0,-999,-99.99,,,-99.99,,2013-06-16 06:33:00,
2013-06-16 01:43:00,83.0,-99.9,30.04,SE,130,8.0,9.0,-999,-99.99,,,-99.99,,2013-06-16 06:43:00,
2013-06-16 01:52:00,83.0,-99.9,30.03,SSE,148,8.0,11.0,-999,-99.99,,,-99.99,,2013-06-16 06:52:00,
2013-06-16 02:01:00,83.0,-99.9,30.03,SE,141,10.0,11.0,-999,-99.99,,,-99.99,,2013-06-16 07:01:00,
2013-06-16 02:12:00,83.0,-99.9,30.03,SE,145,9.0,10.0,-999,-99.99,,,-99.99,,2013-06-16 07:12:00,
2013-06-16 02:23:00,83.0,-99.9,30.03,SE,135,9.0,11.0,-999,-99.99,,,-99.99,,2013-06-16 07:23:00,
2013-06-16 02:33:00,83.0,-99.9,30.02,SE,143,8.0,9.0,-999,-99.99,,,-99.99,,2013-06-16 07:33:00,
2013-06-16 02:43:00,83.0,-99.9,30.02,SE,131,8.0,10.0,-999,-99.99,,,-99.99,,2013-06-16 07:43:00,
2013-06-16 02:53:00,83.0,-99.9,30.02,ESE,119,9.0,11.0,-999,-99.99,,,-99.99,,2013-06-16 07:53:00,
2013-06-16 03:02:00,83.0,-99.9,30.01,SE,126,10.0,11.0,-999,-99.99,,,-99.99,,2013-06-16 08:02:00,
2013-06-16 03:12:00,83.0,-99.9,30.01,SE,124,10.0,11.0,-999,-99.99,,,-99.99,,2013-06-16 08:12:00,
2013-06-16 03:22:00,83.0,-99.9,30.01,SE,143,9.0,11.0,-999,-99.99,,,-99.99,,2013-06-16 08:22:00,
2013-06-16 03:34:00,83.0,-99.9,30.02,SE,136,10.0,11.0,-999,-99.99,,,-99.99,,2013-06-16 08:34:00,
2013-06-16 03:44:00,82.0,-99.9,30.02,SE,143,11.0,11.0,-999,-99.99,,,-99.99,,2013-06-16 08:44:00,
2013-06-16 03:54:00,82.0,-99.9,30.02,SE,146,10.0,12.0,-999,-99.99,,,-99.99,,2013-06-16 08:54:00,
2013-06-16 04:02:00,82.0,-99.9,30.02,SE,145,11.0,12.0,-999,-99.99,,,-99.99,,2013-06-16 09:02:00,
2013-06-16 04:11:00,82.0,-99.9,30.02,SSE,149,10.0,11.0,-999,-99.99,,,-99.99,,2013-06-16 09:11:00,
2013-06-16 04:22:00,82.0,-99.9,30.01,SE,140,10.0,11.0,-999,-99.99,,,-99.99,,2013-06-16 09:22:00,
2013-06-16 04:33:00,82.0,-99.9,30.02,SSE,148,9.0,10.0,-999,-99.99,,,-99.99,,2013-06-16 09:33:00,
2013-06-16 04:43:00,82.0,-99.9,30.02,SSE,148,9.0,10.0,-999,-99.99,,,-99.99,,2013-06-16 09:43:00,
2013-06-16 04:52:00,82.0,-99.9,30.02,SSE,150,8.0,10.0,-999,-99.99,,,-99.99,,2013-06-16 09:52:00,
2013-06-16 05:02:00,82.0,-99.9,30.03,SE,146,8.0,9.0,-999,-99.99,,,-99.99,,2013-06-16 10:02:00,
2013-06-16 05:12:00,82.0,-99.9,30.02,SE,143,8.0,8.0,-999,-99.99,,,-99.99,,2013-06-16 10:12:00,
2013-06-16 05:22:00,82.0,-99.9,30.02,SE,141,8.0,8.0,-999,-99.99,,,-99.99,,2013-06-16 10:22:00,
2013-06-16 05:33:00,82.0,-99.9,30.03,SSE,147,6.0,7.0,-999,-99.99,,,-99.99,,2013-06-16 10:33:00,
2013-06-16 05:43:00,82.0,-99.9,30.03,SE,137,4.0,6.0,-999,-99.99,,,-99.99,,2013-06-16 10:43:00,
2013-06-16 05:54:00,82.0,-99.9,30.04,SE,128,4.0,6.0,-999,-99.99,,,-99.99,,2013-06-16 10:54:00,
2013-06-16 06:02:00,82.0,-99.9,30.04,ESE,112,4.0,6.0,-999,-99.99,,,-99.99,,2013-06-16 11:02:00,
2013-06-16 06:12:00,82.0,-99.9,30.04,ESE,106,4.0,5.0,-999,-99.99,,,-99.99,,2013-06-16 11:12:00,
2013-06-16 06:22:00,82.0,-99.9,30.04,SE,137,2.0,4.0,-999,-99.99,,,-99.99,,2013-06-16 11:22:00,
2013-06-16 06:34:00,82.0,-99.9,30.04,East,98,4.0,5.0,-999,-99.99,,,-99.99,,2013-06-16 11:34:00,
2013-06-16 06:43:00,82.0,-99.9,30.04,East,94,3.0,6.0,-999,-99.99,,,-99.99,,2013-06-16 11:43:00,
2013-06-16 06:53:00,83.0,-99.9,30.05,SE,137,4.0,5.0,-999,-99.99,,,-99.99,,2013-06-16 11:53:00,
2013-06-16 07:02:00,83.0,-99.9,30.05,South,187,3.0,8.0,-999,-99.99,,,-99.99,,2013-06-16 12:02:00,
2013-06-16 07:12:00,83.0,-99.9,30.05,South,176,7.0,9.0,-999,-99.99,,,-99.99,,2013-06-16 12:12:00,
2013-06-16 07:22:00,83.0,-99.9,30.06,South,174,7.0,9.0,-999,-99.99,,,-99.99,,2013-06-16 12:22:00,
2013-06-16 07:33:00,83.0,-99.9,30.06,South,177,6.0,9.0,-999,-99.99,,,-99.99,,2013-06-16 12:33:00,
2013-06-16 07:43:00,83.0,-99.9,30.06,South,177,6.0,9.0,-999,-99.99,,,-99.99,,2013-06-16 12:43:00,
2013-06-16 07:53:00,84.0,-99.9,30.06,South,172,6.0,9.0,-999,-99.99,,,-99.99,,2013-06-16 12:53:00,
2013-06-16 08:02:00,84.0,-99.9,30.06,SSE,159,6.0,8.0,-999,-99.99,,,-99.99,,2013-06-16 13:02:00,
2013-06-16 08:12:00,84.0,-99.9,30.06,SSE,153,7.0,8.0,-999,-99.99,,,-99.99,,2013-06-16 13:12:00,
2013-06-16 08:22:00,84.0,-99.9,30.07,SSE,155,6.0,7.0,-999,-99.99,,,-99.99,,2013-06-16 13:22:00,
2013-06-16 08:34:00,84.0,-99.9,30.07,SE,144,6.0,9.0,-999,-99.99,,,-99.99,,2013-06-16 13:34:00,
2013-06-16 08:43:00,84.0,-99.9,30.07,SSE,147,7.0,8.0,-999,-99.99,,,-99.99,,2013-06-16 13:43:00,
2013-06-16 08:54:00,84.0,-99.9,30.07,SE,139,6.0,8.0,-999,-99.99,,,-99.99,,2013-06-16 13:54:00,
2013-06-16 09:02:00,84.0,-99.9,30.07,SE,128,7.0,10.0,-999,-99.99,,,-99.99,,2013-06-16 14:02:00,
2013-06-16 09:12:00,84.0,-99.9,30.07,SE,129,9.0,10.0,-999,-99.99,,,-99.99,,2013-06-16 14:12:00,
2013-06-16 09:23:00,83.0,-99.9,30.07,ESE,123,9.0,11.0,-999,-99.99,,,-99.99,,2013-06-16 14:23:00,
2013-06-16 09:34:00,84.0,-99.9,30.08,SE,129,9.0,11.0,-999,-99.99,,,-99.99,,2013-06-16 14:34:00,
2013-06-16 09:44:00,84.0,-99.9,30.08,SE,124,9.0,12.0,-999,-99.99,,,-99.99,,2013-06-16 14:44:00,
2013-06-16 09:53:00,83.0,-99.9,30.08,SE,128,11.0,13.0,-999,-99.99,,,-99.99,,2013-06-16 14:53:00,
2013-06-16 10:02:00,83.0,-99.9,30.08,ESE,122,8.0,10.0,-999,-99.99,,,-99.99,,2013-06-16 15:02:00,
2013-06-16 10:12:00,83.0,-99.9,30.08,SE,137,7.0,9.0,-999,-99.99,,,-99.99,,2013-06-16 15:12:00,
2013-06-16 10:23:00,83.0,-99.9,30.08,SE,140,8.0,9.0,-999,-99.99,,,-99.99,,2013-06-16 15:23:00,
2013-06-16 10:34:00,84.0,-99.9,30.08,SE,129,7.0,9.0,-999,-99.99,,,-99.99,,2013-06-16 15:34:00,
2013-06-16 10:43:00,84.0,-99.9,30.08,ESE,118,7.0,9.0,-999,-99.99,,,-99.99,,2013-06-16 15:43:00,
2013-06-16 10:53:00,84.0,-99.9,30.08,SE,126,4.0,6.0,-999,-99.99,,,-99.99,,2013-06-16 15:53:00,
2013-06-16 11:02:00,85.0,-99.9,30.07,SSE,149,5.0,6.0,-999,-99.99,,,-99.99,,2013-06-16 16:02:00,
2013-06-16 11:12:00,85.0,-99.9,30.07,SSE,149,5.0,7.0,-999,-99.99,,,-99.99,,2013-06-16 16:12:00,
2013-06-16 11:23:00,84.0,-99.9,30.07,SE,138,5.0,7.0,-999,-99.99,,,-99.99,,2013-06-16 16:23:00,
2013-06-16 11:33:00,85.0,-99.9,30.07,SE,145,7.0,9.0,-999,-99.99,,,-99.99,,2013-06-16 16:33:00,
2013-06-16 11:43:00,84.0,-99.9,30.07,SE,142,8.0,9.0,-999,-99.99,,,-99.99,,2013-06-16 16:43:00,
2013-06-16 11:53:00,84.0,-99.9,30.07,SE,142,7.0,9.0,-999,-99.99,,,-99.99,,2013-06-16 16:53:00,
2013-06-16 12:02:00,84.0,-99.9,30.06,SE,145,7.0,9.0,-999,-99.99,,,-99.99,,2013-06-16 17:02:00,
2013-06-16 12:12:00,84.0,-99.9,30.06,SE,141,8.0,9.0,-999,-99.99,,,-99.99,,2013-06-16 17:12:00,
2013-06-16 12:22:00,84.0,-99.9,30.06,SE,129,8.0,9.0,-999,-99.99,,,-99.99,,2013-06-16 17:22:00,
2013-06-16 12:34:00,84.0,-99.9,30.06,SE,132,7.0,8.0,-999,-99.99,,,-99.99,,2013-06-16 17:34:00,
2013-06-16 12:43:00,84.0,-99.9,30.06,SSE,150,6.0,8.0,-999,-99.99,,,-99.99,,2013-06-16 17:43:00,
2013-06-16 12:53:00,84.0,-99.9,30.06,SE,128,6.0,8.0,-999,-99.99,,,-99.99,,2013-06-16 17:53:00,
2013-06-16 13:02:00,84.0,-99.9,30.06,SE,132,8.0,10.0,-999,-99.99,,,-99.99,,2013-06-16 18:02:00,
2013-06-16 13:12:00,84.0,-99.9,30.06,SE,132,9.0,9.0,-999,-99.99,,,-99.99,,2013-06-16 18:12:00,
2013-06-16 13:22:00,84.0,-99.9,30.06,SE,132,9.0,9.0,-999,-99.99,,,-99.99,,2013-06-16 18:22:00,
2013-06-16 13:34:00,85.0,-99.9,30.06,SSE,148,8.0,9.0,-999,-99.99,,,-99.99,,2013-06-16 18:34:00,
2013-06-16 13:43:00,85.0,-99.9,30.06,SSE,147,7.0,9.0,-999,-99.99,,,-99.99,,2013-06-16 18:43:00,
2013-06-16 13:52:00,85.0,-99.9,30.05,SSE,166,6.0,9.0,-999,-99.99,,,-99.99,,2013-06-16 18:52:00,
2013-06-16 14:02:00,86.0,-99.9,30.05,SW,217,6.0,8.0,-999,-99.99,,,-99.99,,2013-06-16 19:02:00,
2013-06-16 14:12:00,87.0,-99.9,30.05,SW,224,6.0,11.0,-999,-99.99,,,-99.99,,2013-06-16 19:12:00,
2013-06-16 14:22:00,87.0,-99.9,30.04,SW,217,6.0,12.0,-999,-99.99,,,-99.99,,2013-06-16 19:22:00,
2013-06-16 14:34:00,86.0,-99.9,30.05,SW,225,8.0,12.0,-999,-99.99,,,-99.99,,2013-06-16 19:34:00,
2013-06-16 14:43:00,85.0,-99.9,30.04,SW,224,10.0,16.0,-999,-99.99,,,-99.99,,2013-06-16 19:43:00,
2013-06-16 14:54:00,85.0,-99.9,30.04,SW,222,7.0,10.0,-999,-99.99,,,-99.99,,2013-06-16 19:54:00,
2013-06-16 15:02:00,85.0,-99.9,30.04,WSW,245,7.0,10.0,-999,-99.99,,,-99.99,,2013-06-16 20:02:00,
2013-06-16 15:12:00,85.0,-99.9,30.03,WSW,240,7.0,9.0,-999,-99.99,,,-99.99,,2013-06-16 20:12:00,
2013-06-16 15:22:00,86.0,-99.9,30.03,SSW,210,5.0,9.0,-999,-99.99,,,-99.99,,2013-06-16 20:22:00,
2013-06-16 15:34:00,85.0,-99.9,30.04,SW,226,7.0,10.0,-999,-99.99,,,-99.99,,2013-06-16 20:34:00,
2013-06-16 15:43:00,85.0,-99.9,30.03,SW,230,6.0,11.0,-999,-99.99,,,-99.99,,2013-06-16 20:43:00,
2013-06-16 15:53:00,85.0,-99.9,30.03,WSW,247,9.0,11.0,-999,-99.99,,,-99.99,,2013-06-16 20:53:00,
2013-06-16 16:02:00,85.0,-99.9,30.03,SW,232,9.0,12.0,-999,-99.99,,,-99.99,,2013-06-16 21:02:00,
2013-06-16 16:11:00,85.0,-99.9,30.03,SW,232,9.0,12.0,-999,-99.99,,,-99.99,,2013-06-16 21:11:00,
2013-06-16 16:22:00,85.0,-99.9,30.03,SW,232,9.0,12.0,-999,-99.99,,,-99.99,,2013-06-16 21:22:00,
2013-06-16 16:33:00,85.0,-99.9,30.03,WSW,238,8.0,11.0,-999,-99.99,,,-99.99,,2013-06-16 21:33:00,
2013-06-16 16:42:00,85.0,-99.9,30.02,SW,224,10.0,14.0,-999,-99.99,,,-99.99,,2013-06-16 21:42:00,
2013-06-16 16:53:00,85.0,-99.9,30.02,SW,224,10.0,14.0,-999,-99.99,,,-99.99,,2013-06-16 21:53:00,
2013-06-16 19:12:00,85.0,-99.9,30.03,SSW,199,6.0,13.0,-999,-99.99,,,-99.99,,2013-06-17 00:12:00,
2013-06-16 20:22:00,84.0,-99.9,30.03,SSW,197,6.0,11.0,-999,-99.99,,,-99.99,,2013-06-17 01:22:00,
2013-06-16 20:32:00,84.0,-99.9,30.03,SSW,193,9.0,12.0,-999,-99.99,,,-99.99,,2013-06-17 01:32:00,
2013-06-16 20:43:00,84.0,-99.9,30.04,SSW,193,9.0,15.0,-999,-99.99,,,-99.99,,2013-06-17 01:43:00,
2013-06-16 20:53:00,84.0,-99.9,30.03,South,184,14.0,17.0,-999,-99.99,,,-99.99,,2013-06-17 01:53:00,
2013-06-16 21:03:00,84.0,-99.9,30.03,South,189,10.0,16.0,-999,-99.99,,,-99.99,,2013-06-17 02:03:00,
2013-06-16 21:12:00,84.0,-99.9,30.03,South,187,12.0,16.0,-999,-99.99,,,-99.99,,2013-06-17 02:12:00,
2013-06-16 21:22:00,84.0,-99.9,30.04,SW,219,6.0,13.0,-999,-99.99,,,-99.99,,2013-06-17 02:22:00,
2013-06-16 21:34:00,84.0,-99.9,30.03,SSW,192,11.0,17.0,-999,-99.99,,,-99.99,,2013-06-17 02:34:00,
2013-06-16 21:43:00,84.0,-99.9,30.03,South,187,13.0,17.0,-999,-99.99,,,-99.99,,2013-06-17 02:43:00,
2013-06-16 21:53:00,84.0,-99.9,30.03,South,188,8.0,17.0,-999,-99.99,,,-99.99,,2013-06-17 02:53:00,
2013-06-16 22:02:00,84.0,-99.9,30.02,South,185,12.0,18.0,-999,-99.99,,,-99.99,,2013-06-17 03:02:00,
2013-06-16 22:12:00,84.0,-99.9,30.02,SSW,192,11.0,19.0,-999,-99.99,,,-99.99,,2013-06-17 03:12:00,
2013-06-16 22:22:00,84.0,-99.9,30.02,South,189,12.0,17.0,-999,-99.99,,,-99.99,,2013-06-17 03:22:00,
2013-06-16 22:33:00,84.0,-99.9,30.03,SSW,199,8.0,15.0,-999,-99.99,,,-99.99,,2013-06-17 03:33:00,
2013-06-16 22:44:00,84.0,-99.9,30.02,South,186,11.0,14.0,-999,-99.99,,,-99.99,,2013-06-17 03:44:00,
2013-06-16 22:54:00,84.0,-99.9,30.03,SSW,195,9.0,15.0,-999,-99.99,,,-99.99,,2013-06-17 03:54:00,
2013-06-16 23:02:00,84.0,-99.9,30.04,SSW,201,12.0,17.0,-999,-99.99,,,-99.99,,2013-06-17 04:02:00,
2013-06-16 23:12:00,84.0,-99.9,30.04,SSW,200,9.0,15.0,-999,-99.99,,,-99.99,,2013-06-17 04:12:00,
2013-06-16 23:23:00,84.0,-99.9,30.04,SSW,200,9.0,15.0,-999,-99.99,,,-99.99,,2013-06-17 04:23:00,
2013-06-16 23:34:00,85.0,-99.9,30.04,SW,225,11.0,17.0,-999,-99.99,,,-99.99,,2013-06-17 04:34:00,
2013-06-16 23:43:00,85.0,-99.9,30.04,SW,222,10.0,13.0,-999,-99.99,,,-99.99,,2013-06-17 04:43:00,
2013-06-16 23:53:00,85.0,-99.9,30.04,SW,229,11.0,17.0,-999,-99.99,,,-99.99,,2013-06-17 04:53:00,